This is the latest recevied weather packets stored in our database for station/object WA6MHA-11. If no packets are shown the sender has not sent any weather packets the latest 10 day(s).
| Time | Temp. | Humidity | Pressure | Rain* | Wind** | Luminosity | Snow |
|---|---|---|---|---|---|---|---|
| 1777832039 | 17.78° C | 48% | 1015.5 hPa | 0 mm | - | - | - |
| 1777832038 | 17.78° C | 48% | 1015.5 hPa | 0 mm | - | - | - |
| 1777831796 | 18.33° C | 48% | 1015.7 hPa | 0 mm | - | - | - |
| 1777831313 | 17.22° C | 48% | 1015.8 hPa | 0 mm | - | - | - |
| 1777831072 | 16.67° C | 49% | 1015.9 hPa | 0 mm | - | - | - |
| 1777830349 | 16.67° C | 49% | 1016 hPa | 0 mm | - | - | - |
| 1777830107 | 16.67° C | 50% | 1016 hPa | 0 mm | - | - | - |
| 1777829625 | 16.67° C | 50% | 1016 hPa | 0 mm | - | - | - |
| 1777829143 | 16.11° C | 51% | 1015.9 hPa | 0 mm | - | - | - |
| 1777828703 | 16.11° C | 51% | 1015.8 hPa | 0 mm | - | - | - |
| 1777828662 | 16.11° C | 51% | 1015.8 hPa | 0 mm | - | - | - |
| 1777828418 | 16.11° C | 52% | 1015.8 hPa | 0 mm | - | - | - |
| 1777828179 | 16.11° C | 52% | 1015.7 hPa | 0 mm | - | - | - |
| 1777827937 | 16.11° C | 52% | 1015.7 hPa | 0 mm | - | - | - |
| 1777827695 | 15.56° C | 53% | 1015.7 hPa | 0 mm | - | - | - |
| 1777827452 | 15.56° C | 53% | 1015.5 hPa | 0 mm | - | - | - |
| 1777827211 | 15.56° C | 53% | 1015.5 hPa | 0 mm | - | - | - |
| 1777826970 | 15.56° C | 53% | 1015.5 hPa | 0 mm | - | - | - |
| 1777826729 | 15° C | 54% | 1015.5 hPa | 0 mm | - | - | - |
| 1777826246 | 15° C | 54% | 1015.3 hPa | 0 mm | - | - | - |
| 1777826005 | 15° C | 54% | 1015.2 hPa | 0 mm | - | - | - |
| 1777825764 | 15° C | 54% | 1015.4 hPa | 0 mm | - | - | - |
| 1777825282 | 15° C | 55% | 1015.4 hPa | 0 mm | - | - | - |
| 1777825041 | 15° C | 55% | 1015.3 hPa | 0 mm | - | - | - |
| 1777824316 | 15° C | 55% | 1015.2 hPa | 0 mm | - | - | - |
* Rain since midnight (hover to see other rain measurements)
** Current wind speed in m/s (hover to see current wind gust speed)